Regional Weather Roundup
Issued by NWS

Home | Current Version | Previous Version | Graphics & Text | Print | Product List | Glossary On
Versions: 1 2 3 4 5 6 7 8 9 10 11 12 13 14 15 16 17 18 19 20 21 22 23 24 25 26 27 28 29 30 31 32 33 34 35 36 37 38 39 40 41 42 43 44 45 46 47 48 49 50
000
ASUS43 KDTX 271510
RWRMI
MICHIGAN HOURLY REGIONAL WEATHER ROUNDUP
NATIONAL WEATHER SERVICE DETROIT/PONTIAC MI
1100 AM EDT FRI MAR 27 2015

NOTE: "FAIR" INDICATES FEW OR NO CLOUDS BELOW 12,000 FEET WITH NO
SIGNIFICANT WEATHER AND/OR OBSTRUCTION TO VISIBILITY.

MIZ047>049-052>055-059>063-066>070-074>076-081>083-271600-
SOUTHEAST LOWER MICHIGAN

CITY           SKY/WX    TMP DP  RH WIND       PRES   REMARKS
ADRIAN         FLURRIES  23  12  62 N14G21    30.03S WCI  11
ALMA           CLOUDY    22   9  57 NW13G20   30.08R WCI  10
ANN ARBOR      FLURRIES  24  13  62 N15       30.02R WCI  11
BAD AXE        CLOUDY    18  13  81 N17G23    30.03R WCI   3
CARO           CLOUDY    20  11  70 N16       30.05R WCI   5
DETROIT CITY   FLURRIES  26  13  57 N15G22    30.01S WCI  14
DETROIT        FLURRIES  27  12  54 NW14G21   30.02S WCI  15
FLINT          LGT SNOW  23  12  62 NW14      30.04R WCI  11
GROSSE ILE     FLURRIES  27  14  59 NW13      30.01R WCI  16
HILLSDALE      CLOUDY    23   8  54 NW13G23   30.01S WCI  11
HOWELL         LGT SNOW  22  15  74 NW15      30.02S WCI   8

CITY           SKY/WX    TMP DP  RH WIND       PRES   REMARKS
JACKSON        CLOUDY    21  10  62 NW16      30.03R WCI   7
LAMBERTVILLE   CLOUDY    28  14  54 N12       30.03S WCI  18
LANSING        CLOUDY    21   6  52 N15G22    30.06R WCI   8
LAPEER         LGT SNOW  20  15  81 N12G17    30.02R WCI   8
MASON          LGT SNOW  20  11  68 N12G18    30.04R WCI   8
MONROE         CLOUDY    27  16  63 NW10G20   30.01R WCI  17
MT. CLEMENS    LGT SNOW  24  17  72 NW20      29.97S WCI  10
PONTIAC        LGT SNOW  22  15  75 NW17      29.99R WCI   8
PORT HOPE        N/A     21  12  68 N13G29    30.03R WCI   9
PORT HURON     LGT SNOW  23  18  80 N13G21    30.00R WCI  11
TRI CITIES     CLOUDY    22   9  57 N16       30.07R WCI   8
TROY           CLOUDY    25  14  63 NW13      30.03R WCI  13
SAGINAW HB     LGT SNOW  21  16  79 N14       30.06R WCI   8
$$
MIZ043>046-050>051-056>058-064>065-071>073-077>080-271600-
SOUTHWEST LOWER MICHIGAN

CITY           SKY/WX    TMP DP  RH WIND       PRES   REMARKS
BATTLE CREEK   CLOUDY    23   5  46 N14G23    30.06R WCI  11
BENTON HARBOR  CLOUDY    23  12  62 N12G22    30.11R WCI  12
BIG RAPIDS     PTSUNNY   20   4  48 N15G24    30.08S WCI   7
COLDWATER      CLOUDY    24   8  50 N13       30.04S WCI  12
FREMONT        FAIR      22  -3  32 N12G18    30.11S WCI  11
HOLLAND        SUNNY     25   1  35 N9G22     30.12S WCI  15
GRAND RAPIDS   MOSUNNY   23  -1  35 N17       30.09R WCI   9
IONIA          CLOUDY    23   5  45 NW13G20   30.07R WCI  11
KALAMAZOO      PTSUNNY   22   5  48 N18       30.08R WCI   7
LUDINGTON      PTSUNNY   23   4  45 NE12G18   30.15S WCI  11
MARSHALL       CLOUDY    21   6  51 NW7       30.05R WCI  13
MOUNT PLEASANT MOSUNNY   22  -1  37 N14G25    30.07S WCI   9
MUSKEGON       MOSUNNY   25   1  35 N15       30.14R WCI  13
SOUTH HAVEN    PTSUNNY   27   6  40 N16G25    30.10S WCI  15
$$
MIZ016>042-271600-
NORTHERN LOWER MICHIGAN

CITY           SKY/WX    TMP DP  RH WIND       PRES   REMARKS
ALPENA         CLOUDY    14   5  67 N15       30.11R WCI  -1
BEAVER ISLAND  MOSUNNY   10   0  63 N9G17     30.20S WCI  -3
BELLAIRE       MOSUNNY   13   2  61 NW8G16    30.17R WCI   2
CADILLAC       MOSUNNY   16   2  54 N14G24    30.06S WCI   1
CHARLEVOIX     MOSUNNY    9   2  72 N13G18    30.21R WCI  -6
FRANKFORT      LGT SNOW  20   7  56 N9        30.18R WCI  10
GAYLORD        SUNNY     11  -2  56 N8        30.06S WCI  -1
GRAYLING       MOSUNNY   15  -1  50 N15G29    30.08R WCI   0
HARBOR SPRINGS SUNNY     11  -1  59 N5        30.16R WCI   3
HOUGHTON LAKE  MOSUNNY   17  -1  45 NW17G25   30.07R WCI   1
MANISTEE       PTSUNNY   19   7  58 N13G18    30.16S WCI   7
OSCODA         MOSUNNY   19   7  59 N14G22    30.06S WCI   6
PELLSTON       MOSUNNY   11   0  61 N10       30.17R WCI  -3
ROGERS CITY    CLOUDY    12   5  75 N13       30.14R WCI  -3
TRAVERSE CITY  PTSUNNY   16   6  65 N13       30.16R WCI   2
$$
MIZ007>008-015-271600-
EASTERN UPPER MICHIGAN

CITY           SKY/WX    TMP DP  RH WIND       PRES   REMARKS
KINROSS        SUNNY      9  -2  61 NW12G17   30.17R WCI  -6
MACKINAC ISLAN SUNNY     11  -2  56 N12G18    30.16R WCI  -4
NEWBERRY       SUNNY      7  -3  65 NW13G18   30.19S WCI -10
S. S. MARIE    SUNNY      8  -6  52 N7        30.17F WCI  -3
MUNISING         N/A      9   1  70 NE16      30.27R WCI  -8
$$
MIZ004>006-011>014-085-271600-
CENTRAL UPPER MICHIGAN

CITY           SKY/WX    TMP DP  RH WIND       PRES   REMARKS
MANISTIQUE     SUNNY     10   0  62 N14G22    30.22R WCI  -6
ESCANABA       MOSUNNY   16   1  53 N12G17    30.24R WCI   3
MENOMINEE      MOSUNNY   18   3  53 N10G17    30.23R WCI   6
SAWYER-GWINN   LGT SNOW  10   5  79 N15       30.20R WCI  -6
$$
MIZ001>003-009>011-084-271600-
WESTERN UPPER MICHIGAN

CITY           SKY/WX    TMP DP  RH WIND       PRES   REMARKS
IRON MOUNTAIN  SUNNY     15  -1  49 N15       30.20R WCI   0
HOUGHTON       MOSUNNY   12   2  64 SE3       30.25R
COPPER HARBOR    N/A     12   1  61 E3        30.30R
IRONWOOD       SUNNY     19   9  63 NW10      30.21S WCI   8
$$

ABBREVIATIONS USED IN REMARKS
   TC - TEMPERATURE IN CELSIUS
  WCI - WIND CHILL INDEX
   HX - HEAT INDEX
  VSB - VISIBILITY




USA.gov is the U.S. government's official web portal to all federal, state and local government web resources and services.